Time,TemperatureF,DewpointF,PressureIn,WindDirection,WindDirectionDegrees,WindSpeedMPH,WindSpeedGustMPH,Humidity,HourlyPrecipIn,Conditions,Clouds,dailyrainin,SoftwareType,DateUTC
2013-04-16 00:05:00,41.4,39.0,30.16,NNE,16,0.0,0.0,91,0.00,,,0.00,Wunderground v.1.15,2013-04-16 07:05:00,
2013-04-16 00:15:00,41.1,38.4,30.17,South,185,0.0,0.0,90,0.00,,,0.00,Wunderground v.1.15,2013-04-16 07:15:00,
2013-04-16 00:25:00,40.8,38.4,30.17,South,185,0.0,0.0,91,0.00,,,0.00,Wunderground v.1.15,2013-04-16 07:25:00,
2013-04-16 00:35:00,40.8,38.7,30.17,South,185,0.0,0.0,92,0.00,,,0.00,Wunderground v.1.15,2013-04-16 07:35:00,
2013-04-16 00:45:00,40.7,38.6,30.17,South,185,0.0,0.0,92,0.00,,,0.00,Wunderground v.1.15,2013-04-16 07:45:00,
2013-04-16 00:55:00,40.6,38.5,30.17,WNW,303,0.0,0.0,92,0.00,,,0.00,Wunderground v.1.15,2013-04-16 07:55:00,
2013-04-16 01:05:00,40.8,38.7,30.17,NW,309,0.0,0.0,92,0.00,,,0.00,Wunderground v.1.15,2013-04-16 08:05:00,
2013-04-16 01:15:00,40.6,38.5,30.18,NW,309,0.0,0.0,92,0.00,,,0.00,Wunderground v.1.15,2013-04-16 08:15:00,
2013-04-16 01:25:00,40.4,38.3,30.18,NW,309,0.0,0.0,92,0.00,,,0.00,Wunderground v.1.15,2013-04-16 08:25:00,
2013-04-16 01:35:00,40.3,38.2,30.18,NW,309,0.0,1.0,92,0.00,,,0.00,Wunderground v.1.15,2013-04-16 08:35:00,
2013-04-16 01:45:00,40.1,37.7,30.18,NW,309,0.0,1.0,91,0.00,,,0.00,Wunderground v.1.15,2013-04-16 08:45:00,
2013-04-16 01:55:00,39.8,37.1,30.18,NW,309,0.0,1.0,90,0.00,,,0.00,Wunderground v.1.15,2013-04-16 08:55:00,
2013-04-16 02:05:00,39.5,37.1,30.18,West,264,0.0,0.0,91,0.00,,,0.00,Wunderground v.1.15,2013-04-16 09:05:00,
2013-04-16 02:15:00,39.2,37.1,30.19,SSE,168,0.0,0.0,92,0.00,,,0.00,Wunderground v.1.15,2013-04-16 09:15:00,
2013-04-16 02:20:00,39.2,37.1,30.19,SSE,168,0.0,0.0,92,0.00,,,0.00,Wunderground v.1.15,2013-04-16 09:20:00,
2013-04-16 02:25:00,39.1,37.0,30.19,SSE,167,0.0,0.0,92,0.00,,,0.00,Wunderground v.1.15,2013-04-16 09:25:00,
2013-04-16 02:35:00,39.0,36.9,30.19,SSE,168,0.0,0.0,92,0.00,,,0.00,Wunderground v.1.15,2013-04-16 09:35:00,
2013-04-16 02:45:00,38.9,36.8,30.19,SSE,167,0.0,0.0,92,0.00,,,0.00,Wunderground v.1.15,2013-04-16 09:45:00,
2013-04-16 02:50:00,38.8,36.7,30.19,SSE,167,0.0,0.0,92,0.00,,,0.00,Wunderground v.1.15,2013-04-16 09:50:00,
2013-04-16 02:55:00,38.7,36.6,30.19,SSE,168,0.0,0.0,92,0.00,,,0.00,Wunderground v.1.15,2013-04-16 09:55:00,
2013-04-16 03:05:00,38.6,36.8,30.20,SSE,168,0.0,0.0,93,0.00,,,0.00,Wunderground v.1.15,2013-04-16 10:05:00,
2013-04-16 03:15:00,38.5,36.7,30.20,SSE,168,0.0,0.0,93,0.00,,,0.00,Wunderground v.1.15,2013-04-16 10:15:00,
2013-04-16 03:25:00,38.5,36.4,30.20,SSE,168,0.0,0.0,92,0.00,,,0.00,Wunderground v.1.15,2013-04-16 10:25:00,
2013-04-16 03:35:00,38.3,35.9,30.21,SSW,205,0.0,1.0,91,0.00,,,0.00,Wunderground v.1.15,2013-04-16 10:35:00,
2013-04-16 03:45:00,38.0,35.9,30.21,SSW,205,0.0,0.0,92,0.00,,,0.00,Wunderground v.1.15,2013-04-16 10:45:00,
2013-04-16 03:55:00,37.9,35.8,30.22,SSW,205,0.0,0.0,92,0.00,,,0.00,Wunderground v.1.15,2013-04-16 10:55:00,
2013-04-16 04:05:00,37.7,35.9,30.22,SSW,205,0.0,0.0,93,0.00,,,0.00,Wunderground v.1.15,2013-04-16 11:05:00,
2013-04-16 04:15:00,37.8,36.2,30.22,SSW,205,0.0,0.0,94,0.00,,,0.00,Wunderground v.1.15,2013-04-16 11:15:00,
2013-04-16 04:25:00,37.8,36.2,30.22,SSW,205,0.0,0.0,94,0.00,,,0.00,Wunderground v.1.15,2013-04-16 11:25:00,
2013-04-16 04:30:00,37.8,36.0,30.22,SSW,205,0.0,0.0,93,0.00,,,0.00,Wunderground v.1.15,2013-04-16 11:30:00,
2013-04-16 04:35:00,37.7,35.9,30.22,SSW,205,0.0,0.0,93,0.00,,,0.00,Wunderground v.1.15,2013-04-16 11:35:00,
2013-04-16 04:45:00,37.6,35.8,30.22,SSW,205,0.0,0.0,93,0.00,,,0.00,Wunderground v.1.15,2013-04-16 11:45:00,
2013-04-16 04:55:00,37.6,35.8,30.23,SSW,205,0.0,0.0,93,0.00,,,0.00,Wunderground v.1.15,2013-04-16 11:55:00,
2013-04-16 05:05:00,37.5,35.7,30.23,SSW,205,0.0,0.0,93,0.00,,,0.00,Wunderground v.1.15,2013-04-16 12:05:00,
2013-04-16 05:10:00,37.4,35.6,30.23,SSW,205,0.0,0.0,93,0.00,,,0.00,Wunderground v.1.15,2013-04-16 12:10:00,
2013-04-16 05:15:00,37.3,35.2,30.23,SSW,205,0.0,0.0,92,0.00,,,0.00,Wunderground v.1.15,2013-04-16 12:15:00,
2013-04-16 05:25:00,37.3,35.7,30.24,NW,320,0.0,0.0,94,0.00,,,0.00,Wunderground v.1.15,2013-04-16 12:25:00,
2013-04-16 05:35:00,37.8,36.2,30.24,NW,318,0.0,0.0,94,0.00,,,0.00,Wunderground v.1.15,2013-04-16 12:35:00,
2013-04-16 05:45:00,38.0,36.4,30.24,NW,315,0.0,0.0,94,0.00,,,0.00,Wunderground v.1.15,2013-04-16 12:45:00,
2013-04-16 05:55:00,38.2,36.9,30.25,NW,315,0.0,0.0,95,0.00,,,0.00,Wunderground v.1.15,2013-04-16 12:55:00,
2013-04-16 06:05:00,38.4,37.1,30.25,NW,326,0.0,0.0,95,0.00,,,0.00,Wunderground v.1.15,2013-04-16 13:05:00,
2013-04-16 06:15:00,38.6,37.3,30.25,NW,326,0.0,0.0,95,0.00,,,0.00,Wunderground v.1.15,2013-04-16 13:15:00,
2013-04-16 06:25:00,38.8,37.5,30.25,NW,326,0.0,0.0,95,0.00,,,0.00,Wunderground v.1.15,2013-04-16 13:25:00,
2013-04-16 06:35:00,39.2,37.9,30.26,NW,326,0.0,1.0,95,0.00,,,0.00,Wunderground v.1.15,2013-04-16 13:35:00,
2013-04-16 06:45:00,39.4,38.1,30.26,NW,326,0.0,1.0,95,0.00,,,0.00,Wunderground v.1.15,2013-04-16 13:45:00,
2013-04-16 06:55:00,39.6,38.6,30.26,NW,326,0.0,1.0,96,0.00,,,0.00,Wunderground v.1.15,2013-04-16 13:55:00,
2013-04-16 07:05:00,39.7,38.7,30.27,NW,326,0.0,0.0,96,0.00,,,0.00,Wunderground v.1.15,2013-04-16 14:05:00,
2013-04-16 07:15:00,39.9,38.9,30.27,NW,326,0.0,0.0,96,0.00,,,0.00,Wunderground v.1.15,2013-04-16 14:15:00,
2013-04-16 07:25:00,40.1,39.1,30.27,NW,326,0.0,0.0,96,0.00,,,0.00,Wunderground v.1.15,2013-04-16 14:25:00,
2013-04-16 07:35:00,40.4,39.4,30.28,NW,326,0.0,0.0,96,0.00,,,0.00,Wunderground v.1.15,2013-04-16 14:35:00,
2013-04-16 07:45:00,40.7,39.6,30.28,NW,326,0.0,0.0,96,0.00,,,0.00,Wunderground v.1.15,2013-04-16 14:45:00,
2013-04-16 07:55:00,41.1,40.0,30.29,NW,326,0.0,0.0,96,0.00,,,0.00,Wunderground v.1.15,2013-04-16 14:55:00,
2013-04-16 08:05:00,41.4,40.3,30.29,NW,326,0.0,0.0,96,0.00,,,0.00,Wunderground v.1.15,2013-04-16 15:05:00,
2013-04-16 08:15:00,41.8,40.7,30.29,NW,326,0.0,0.0,96,0.00,,,0.00,Wunderground v.1.15,2013-04-16 15:15:00,
2013-04-16 08:25:00,42.1,41.0,30.30,NW,326,0.0,0.0,96,0.00,,,0.00,Wunderground v.1.15,2013-04-16 15:25:00,
2013-04-16 08:35:00,42.5,41.4,30.29,SW,218,0.0,0.0,96,0.00,,,0.00,Wunderground v.1.15,2013-04-16 15:35:00,
2013-04-16 08:45:00,42.7,41.4,30.30,SSW,194,0.0,0.0,95,0.00,,,0.00,Wunderground v.1.15,2013-04-16 15:45:00,
2013-04-16 08:55:00,43.0,41.7,30.30,SSW,194,0.0,0.0,95,0.00,,,0.00,Wunderground v.1.15,2013-04-16 15:55:00,
2013-04-16 09:05:00,43.3,42.0,30.29,SSW,194,0.0,0.0,95,0.00,,,0.00,Wunderground v.1.15,2013-04-16 16:05:00,
2013-04-16 09:15:00,43.7,42.1,30.30,SSW,194,0.0,0.0,94,0.00,,,0.00,Wunderground v.1.15,2013-04-16 16:15:00,
2013-04-16 09:25:00,44.0,42.1,30.30,SSW,194,0.0,1.0,93,0.00,,,0.00,Wunderground v.1.15,2013-04-16 16:25:00,
2013-04-16 09:35:00,44.1,41.9,30.30,SSW,194,0.0,0.0,92,0.00,,,0.00,Wunderground v.1.15,2013-04-16 16:35:00,
2013-04-16 09:45:00,44.3,42.4,30.30,SSW,194,0.0,0.0,93,0.00,,,0.00,Wunderground v.1.15,2013-04-16 16:45:00,
2013-04-16 09:55:00,44.7,42.8,30.30,SSW,194,0.0,0.0,93,0.00,,,0.00,Wunderground v.1.15,2013-04-16 16:55:00,
2013-04-16 10:05:00,45.4,42.6,30.31,North,352,0.0,0.0,90,0.00,,,0.00,Wunderground v.1.15,2013-04-16 17:05:00,
2013-04-16 10:10:00,45.7,42.1,30.31,NW,308,0.0,1.0,87,0.00,,,0.00,Wunderground v.1.15,2013-04-16 17:10:00,
2013-04-16 10:15:00,46.1,42.1,30.31,North,351,1.0,1.0,86,0.00,,,0.00,Wunderground v.1.15,2013-04-16 17:15:00,
2013-04-16 10:25:00,47.5,42.9,30.30,NNW,343,0.0,1.0,84,0.00,,,0.00,Wunderground v.1.15,2013-04-16 17:25:00,
2013-04-16 10:35:00,48.8,43.2,30.30,NNW,344,0.0,1.0,81,0.00,,,0.00,Wunderground v.1.15,2013-04-16 17:35:00,
2013-04-16 10:45:00,50.3,43.4,30.30,NE,51,0.0,1.0,77,0.00,,,0.00,Wunderground v.1.15,2013-04-16 17:45:00,
2013-04-16 10:55:00,51.6,43.6,30.30,ENE,71,0.0,1.0,74,0.00,,,0.00,Wunderground v.1.15,2013-04-16 17:55:00,
2013-04-16 11:00:00,52.2,43.8,30.30,North,10,0.0,0.0,73,0.00,,,0.00,Wunderground v.1.15,2013-04-16 18:00:00,
2013-04-16 11:05:00,52.8,43.7,30.30,NNE,20,0.0,0.0,71,0.00,,,0.00,Wunderground v.1.15,2013-04-16 18:05:00,
2013-04-16 11:15:00,54.7,44.7,30.30,East,98,0.0,0.0,69,0.00,,,0.00,Wunderground v.1.15,2013-04-16 18:15:00,
2013-04-16 11:25:00,56.0,44.0,30.30,NE,45,0.0,0.0,64,0.00,,,0.00,Wunderground v.1.15,2013-04-16 18:25:00,
2013-04-16 11:35:00,56.2,44.2,30.30,SSE,155,0.0,7.0,64,0.00,,,0.00,Wunderground v.1.15,2013-04-16 18:35:00,
2013-04-16 11:45:00,57.1,44.2,30.30,North,2,0.0,7.0,62,0.00,,,0.00,Wunderground v.1.15,2013-04-16 18:45:00,
2013-04-16 11:55:00,55.4,42.6,30.31,NE,45,0.0,7.0,62,0.00,,,0.00,Wunderground v.1.15,2013-04-16 18:55:00,
2013-04-16 12:05:00,53.6,42.5,30.31,NNE,17,0.0,0.0,66,0.00,,,0.00,Wunderground v.1.15,2013-04-16 19:05:00,
2013-04-16 12:15:00,54.1,43.0,30.31,ENE,60,0.0,0.0,66,0.00,,,0.00,Wunderground v.1.15,2013-04-16 19:15:00,
2013-04-16 12:25:00,55.4,42.2,30.31,WNW,298,1.0,8.0,61,0.00,,,0.00,Wunderground v.1.15,2013-04-16 19:25:00,
2013-04-16 12:35:00,54.8,41.2,30.30,NW,324,2.0,3.0,60,0.00,,,0.00,Wunderground v.1.15,2013-04-16 19:35:00,
2013-04-16 12:45:00,54.7,42.3,30.30,NW,311,1.0,3.0,63,0.00,,,0.00,Wunderground v.1.15,2013-04-16 19:45:00,
2013-04-16 12:55:00,55.6,41.5,30.31,NE,35,0.0,2.0,59,0.00,,,0.00,Wunderground v.1.15,2013-04-16 19:55:00,
2013-04-16 13:05:00,56.0,41.9,30.30,NW,304,1.0,6.0,59,0.00,,,0.00,Wunderground v.1.15,2013-04-16 20:05:00,
2013-04-16 13:15:00,55.4,41.3,30.31,NW,306,4.0,4.0,59,0.00,,,0.00,Wunderground v.1.15,2013-04-16 20:15:00,
2013-04-16 13:25:00,56.2,41.6,30.30,NW,305,2.0,3.0,58,0.00,,,0.00,Wunderground v.1.15,2013-04-16 20:25:00,
2013-04-16 13:30:00,56.8,41.3,30.30,WNW,301,2.0,2.0,56,0.00,,,0.00,Wunderground v.1.15,2013-04-16 20:30:00,
2013-04-16 13:35:00,55.9,41.3,30.30,NW,314,2.0,7.0,58,0.00,,,0.00,Wunderground v.1.15,2013-04-16 20:35:00,
2013-04-16 13:45:00,55.2,41.1,30.30,North,360,4.0,8.0,59,0.00,,,0.00,Wunderground v.1.15,2013-04-16 20:45:00,
2013-04-16 13:50:00,55.6,40.6,30.30,NW,318,3.0,8.0,57,0.00,,,0.00,Wunderground v.1.15,2013-04-16 20:50:00,
2013-04-16 13:55:00,55.5,40.5,30.30,North,352,3.0,8.0,57,0.00,,,0.00,Wunderground v.1.15,2013-04-16 20:55:00,
2013-04-16 14:05:00,55.7,40.2,30.30,WNW,298,2.0,5.0,56,0.00,,,0.00,Wunderground v.1.15,2013-04-16 21:05:00,
2013-04-16 14:15:00,56.2,39.8,30.30,NW,310,2.0,2.0,54,0.00,,,0.00,Wunderground v.1.15,2013-04-16 21:15:00,
2013-04-16 14:25:00,56.7,39.7,30.30,NNW,345,3.0,3.0,53,0.00,,,0.00,Wunderground v.1.15,2013-04-16 21:25:00,
2013-04-16 14:35:00,57.1,39.1,30.30,North,349,1.0,11.0,51,0.00,,,0.00,Wunderground v.1.15,2013-04-16 21:35:00,
2013-04-16 14:45:00,57.1,38.6,30.30,ENE,71,3.0,11.0,50,0.00,,,0.00,Wunderground v.1.15,2013-04-16 21:45:00,
2013-04-16 14:55:00,57.0,38.0,30.30,NW,310,1.0,11.0,49,0.00,,,0.00,Wunderground v.1.15,2013-04-16 21:55:00,
2013-04-16 15:05:00,57.2,36.0,30.30,WNW,303,1.0,7.0,45,0.00,,,0.00,Wunderground v.1.15,2013-04-16 22:05:00,
2013-04-16 15:15:00,57.8,34.8,30.31,ENE,58,2.0,2.0,42,0.00,,,0.00,Wunderground v.1.15,2013-04-16 22:15:00,
2013-04-16 15:25:00,57.4,40.4,30.31,NNE,27,1.0,1.0,53,0.00,,,0.00,Wunderground v.1.15,2013-04-16 22:25:00,
2013-04-16 15:35:00,57.4,41.4,30.32,SSW,208,0.0,9.0,55,0.00,,,0.00,Wunderground v.1.15,2013-04-16 22:35:00,
2013-04-16 15:45:00,57.7,40.2,30.32,ENE,57,0.0,9.0,52,0.00,,,0.00,Wunderground v.1.15,2013-04-16 22:45:00,
2013-04-16 15:50:00,57.7,40.2,30.32,SSE,151,0.0,9.0,52,0.00,,,0.00,Wunderground v.1.15,2013-04-16 22:50:00,
2013-04-16 15:55:00,57.8,39.3,30.32,SE,125,0.0,9.0,50,0.00,,,0.00,Wunderground v.1.15,2013-04-16 22:55:00,
2013-04-16 16:00:00,57.8,38.8,30.31,SSE,149,0.0,0.0,49,0.00,,,0.00,Wunderground v.1.15,2013-04-16 23:00:00,
2013-04-16 16:10:00,58.0,39.5,30.31,SSE,153,0.0,0.0,50,0.00,,,0.00,Wunderground v.1.15,2013-04-16 23:10:00,
2013-04-16 16:15:00,58.0,38.9,30.31,SW,223,0.0,0.0,49,0.00,,,0.00,Wunderground v.1.15,2013-04-16 23:15:00,
2013-04-16 16:25:00,57.4,38.4,30.32,NE,43,0.0,0.0,49,0.00,,,0.00,Wunderground v.1.15,2013-04-16 23:25:00,
2013-04-16 16:35:00,56.3,37.4,30.32,SW,226,0.0,2.0,49,0.00,,,0.00,Wunderground v.1.15,2013-04-16 23:35:00,
2013-04-16 16:45:00,56.3,38.4,30.32,NE,45,0.0,10.0,51,0.00,,,0.00,Wunderground v.1.15,2013-04-16 23:45:00,
2013-04-16 16:55:00,56.1,37.7,30.31,NNE,14,0.0,10.0,50,0.00,,,0.00,Wunderground v.1.15,2013-04-16 23:55:00,
2013-04-16 17:05:00,56.1,36.7,30.31,NNE,14,0.0,0.0,48,0.00,,,0.00,Wunderground v.1.15,2013-04-17 00:05:00,
2013-04-16 17:15:00,55.9,37.5,30.31,North,5,0.0,0.0,50,0.00,,,0.00,Wunderground v.1.15,2013-04-17 00:15:00,
2013-04-16 17:25:00,55.6,36.2,30.31,ENE,68,0.0,0.0,48,0.00,,,0.00,Wunderground v.1.15,2013-04-17 00:25:00,
2013-04-16 17:30:00,55.4,36.0,30.31,North,7,0.0,0.0,48,0.00,,,0.00,Wunderground v.1.15,2013-04-17 00:30:00,
2013-04-16 17:35:00,55.3,36.5,30.31,NNE,31,0.0,1.0,49,0.00,,,0.00,Wunderground v.1.15,2013-04-17 00:35:00,
2013-04-16 17:45:00,54.9,36.1,30.31,WNW,295,0.0,1.0,49,0.00,,,0.00,Wunderground v.1.15,2013-04-17 00:45:00,
2013-04-16 17:55:00,54.9,35.0,30.31,NNW,331,0.0,1.0,47,0.00,,,0.00,Wunderground v.1.15,2013-04-17 00:55:00,
2013-04-16 18:05:00,54.9,33.9,30.31,North,8,0.0,0.0,45,0.00,,,0.00,Wunderground v.1.15,2013-04-17 01:05:00,
2013-04-16 18:15:00,54.9,33.9,30.30,North,3,0.0,0.0,45,0.00,,,0.00,Wunderground v.1.15,2013-04-17 01:15:00,
2013-04-16 18:25:00,55.0,33.5,30.30,NW,325,1.0,3.0,44,0.00,,,0.00,Wunderground v.1.15,2013-04-17 01:25:00,
2013-04-16 18:35:00,55.0,33.5,30.31,NNW,345,1.0,2.0,44,0.00,,,0.00,Wunderground v.1.15,2013-04-17 01:35:00,
2013-04-16 18:45:00,54.7,34.3,30.31,NNW,339,1.0,3.0,46,0.00,,,0.00,Wunderground v.1.15,2013-04-17 01:45:00,
2013-04-16 18:55:00,54.3,36.0,30.31,North,1,2.0,7.0,50,0.00,,,0.00,Wunderground v.1.15,2013-04-17 01:55:00,
2013-04-16 19:05:00,54.0,34.7,30.31,WNW,303,1.0,2.0,48,0.00,,,0.00,Wunderground v.1.15,2013-04-17 02:05:00,
2013-04-16 19:15:00,53.7,33.9,30.31,NW,308,1.0,1.0,47,0.00,,,0.00,Wunderground v.1.15,2013-04-17 02:15:00,
2013-04-16 19:25:00,53.4,33.1,30.31,WNW,299,0.0,0.0,46,0.00,,,0.00,Wunderground v.1.15,2013-04-17 02:25:00,
2013-04-16 19:30:00,53.3,33.0,30.31,NNW,329,0.0,0.0,46,0.00,,,0.00,Wunderground v.1.15,2013-04-17 02:30:00,
2013-04-16 19:35:00,53.1,32.8,30.31,NNW,335,0.0,8.0,46,0.00,,,0.00,Wunderground v.1.15,2013-04-17 02:35:00,
2013-04-16 19:45:00,52.8,32.0,30.32,North,5,0.0,8.0,45,0.00,,,0.00,Wunderground v.1.15,2013-04-17 02:45:00,
2013-04-16 19:55:00,52.4,31.7,30.32,NNW,348,0.0,8.0,45,0.00,,,0.00,Wunderground v.1.15,2013-04-17 02:55:00,
2013-04-16 20:00:00,52.3,31.6,30.32,NW,321,0.0,0.0,45,0.00,,,0.00,Wunderground v.1.15,2013-04-17 03:00:00,
2013-04-16 20:05:00,52.2,32.0,30.33,NW,311,0.0,0.0,46,0.00,,,0.00,Wunderground v.1.15,2013-04-17 03:05:00,
2013-04-16 20:15:00,52.1,31.9,30.33,WNW,300,0.0,0.0,46,0.00,,,0.00,Wunderground v.1.15,2013-04-17 03:15:00,
2013-04-16 20:20:00,51.9,31.7,30.33,NW,308,0.0,0.0,46,0.00,,,0.00,Wunderground v.1.15,2013-04-17 03:20:00,
2013-04-16 20:25:00,51.8,32.2,30.33,WNW,303,0.0,0.0,47,0.00,,,0.00,Wunderground v.1.15,2013-04-17 03:25:00,
2013-04-16 20:35:00,51.5,32.4,30.34,NW,311,0.0,8.0,48,0.00,,,0.00,Wunderground v.1.15,2013-04-17 03:35:00,
2013-04-16 20:45:00,51.3,32.3,30.34,NW,307,0.0,8.0,48,0.00,,,0.00,Wunderground v.1.15,2013-04-17 03:45:00,
2013-04-16 20:55:00,51.2,32.2,30.35,NW,305,0.0,8.0,48,0.00,,,0.00,Wunderground v.1.15,2013-04-17 03:55:00,
2013-04-16 21:00:00,51.1,32.1,30.35,NW,304,0.0,0.0,48,0.00,,,0.00,Wunderground v.1.15,2013-04-17 04:00:00,
2013-04-16 21:10:00,50.9,32.4,30.35,NW,319,0.0,0.0,49,0.00,,,0.00,Wunderground v.1.15,2013-04-17 04:10:00,
2013-04-16 21:15:00,50.7,32.7,30.35,NNW,346,0.0,0.0,50,0.00,,,0.00,Wunderground v.1.15,2013-04-17 04:15:00,
2013-04-16 21:25:00,50.3,32.8,30.35,NNW,341,0.0,0.0,51,0.00,,,0.00,Wunderground v.1.15,2013-04-17 04:25:00,
2013-04-16 21:30:00,50.0,33.5,30.35,North,2,0.0,0.0,53,0.00,,,0.00,Wunderground v.1.15,2013-04-17 04:30:00,
2013-04-16 21:35:00,49.7,34.2,30.35,ENE,71,0.0,3.0,55,0.00,,,0.00,Wunderground v.1.15,2013-04-17 04:35:00,
2013-04-16 21:45:00,49.3,35.1,30.36,NW,315,0.0,3.0,58,0.00,,,0.00,Wunderground v.1.15,2013-04-17 04:45:00,
2013-04-16 21:55:00,49.2,35.5,30.36,NW,315,0.0,3.0,59,0.00,,,0.00,Wunderground v.1.15,2013-04-17 04:55:00,
2013-04-16 22:05:00,49.0,35.7,30.36,NW,308,0.0,2.0,60,0.00,,,0.00,Wunderground v.1.15,2013-04-17 05:05:00,
2013-04-16 22:15:00,48.9,35.6,30.36,NW,304,0.0,0.0,60,0.00,,,0.00,Wunderground v.1.15,2013-04-17 05:15:00,
2013-04-16 22:25:00,48.8,35.9,30.36,NW,304,0.0,0.0,61,0.00,,,0.00,Wunderground v.1.15,2013-04-17 05:25:00,
2013-04-16 22:35:00,48.7,36.3,30.37,NW,304,0.0,1.0,62,0.00,,,0.00,Wunderground v.1.15,2013-04-17 05:35:00,
2013-04-16 22:45:00,48.4,36.4,30.37,SSW,212,0.0,1.0,63,0.00,,,0.00,Wunderground v.1.15,2013-04-17 05:45:00,
2013-04-16 22:55:00,48.2,36.2,30.37,South,185,0.0,1.0,63,0.00,,,0.00,Wunderground v.1.15,2013-04-17 05:55:00,
2013-04-16 23:00:00,48.1,36.5,30.37,South,185,0.0,0.0,64,0.00,,,0.00,Wunderground v.1.15,2013-04-17 06:00:00,
2013-04-16 23:05:00,48.2,36.6,30.37,South,185,0.0,0.0,64,0.00,,,0.00,Wunderground v.1.15,2013-04-17 06:05:00,
2013-04-16 23:15:00,48.1,36.9,30.38,South,185,0.0,0.0,65,0.00,,,0.00,Wunderground v.1.15,2013-04-17 06:15:00,
2013-04-16 23:25:00,47.6,36.8,30.37,ESE,112,0.0,0.0,66,0.00,,,0.00,Wunderground v.1.15,2013-04-17 06:25:00,
2013-04-16 23:35:00,47.2,36.8,30.37,ESE,112,0.0,3.0,67,0.00,,,0.00,Wunderground v.1.15,2013-04-17 06:35:00,
2013-04-16 23:45:00,47.1,36.7,30.37,ESE,112,0.0,3.0,67,0.00,,,0.00,Wunderground v.1.15,2013-04-17 06:45:00,
2013-04-16 23:55:00,46.9,36.9,30.37,ESE,112,0.0,3.0,68,0.00,,,0.00,Wunderground v.1.15,2013-04-17 06:55:00,